Winfield, KS

3:57 PM CST on February 14, 2016 (GMT -0600)
Strother

Weather History for KWLD - November, 2011

Change the Weather History Date:

Monday, November 14, 2011

  Actual Average Record
Temperature  
Mean Temperature 56 °F -  
Max Temperature 63 °F 56 °F 73 °F (1999)
Min Temperature 46 °F 37 °F 18 °F (2014)
Degree Days  
Heating Degree Days 10    
Growing Degree Days 6 (Base 50)    
Moisture  
Dew Point 37 °F    
Average Humidity 51    
Maximum Humidity 68    
Minimum Humidity 29    
Precipitation  
Precipitation 0.00 in - - ()
Sea Level Pressure  
Sea Level Pressure 29.72 in    
Wind  
Wind Speed 10 mph (SW)    
Max Wind Speed 17 mph    
Max Gust Speed 26 mph    
Visibility 10 miles    
Events      
Averages and records for this station are not official NWS values.
T = Trace of Precipitation, MM = Missing Value Source: NWS Daily Summary

Daily Weather History Graph

Daily Weather History Graph

Search for Another Location

Airport or City:

Trip Planner

Search our weather history database for the weather conditions in past years. The results will help you decide how hot, cold, wet, or windy it might be!

Date:

Astronomy

Nov. 14, 2011 Rise Set
Actual Time 7:05 AM CST 5:18 PM CST
Civil Twilight 6:38 AM CST 5:46 PM CST
Nautical Twilight 6:06 AM CST 6:17 PM CST
Astronomical Twilight 5:35 AM CST 6:48 PM CST
Moon 8:28 PM CST 10:23 AM CST
Length of Visible Light 11h 08m
Length of Day
10h 13m
Waning Gibbous, 86% of the Moon is Illuminated
Nov 14
Waning Gibbous
Nov 18
Last Quarter
Nov 25
New
Dec 2
First Quarter
Dec 10
Full

Hourly Weather History & Observations

Time (CST) Temp. Dew Point Humidity Pressure Visibility Wind Dir Wind Speed Gust Speed Precip Events Conditions
12:54 AM 62.1 °F 44.1 °F 52% 29.53 in 10.0 mi SSW 17.3 mph - N/A   Clear
1:54 AM 63.0 °F 43.0 °F 48% 29.53 in 10.0 mi SSW 16.1 mph 26.5 mph N/A   Clear
2:54 AM 61.0 °F 44.1 °F 54% 29.55 in 10.0 mi SW 13.8 mph - N/A   Clear
3:54 AM 60.1 °F 44.1 °F 55% 29.56 in 10.0 mi SW 11.5 mph - N/A   Clear
4:54 AM 57.9 °F 44.1 °F 60% 29.60 in 10.0 mi WSW 12.7 mph - N/A   Clear
6:54 AM 51.1 °F 37.9 °F 61% 29.71 in 10.0 mi NW 13.8 mph - N/A   Clear
7:54 AM 50.0 °F 37.0 °F 61% 29.75 in 10.0 mi NW 5.8 mph - N/A   Clear
8:54 AM 50.0 °F 37.0 °F 61% 29.78 in 10.0 mi WNW 4.6 mph - N/A   Clear
9:54 AM 54.0 °F 37.0 °F 53% 29.80 in 10.0 mi NNW 6.9 mph - N/A   Clear
10:54 AM 57.0 °F 37.0 °F 47% 29.84 in 10.0 mi WNW 4.6 mph - N/A   Clear
1:54 PM 63.0 °F 30.0 °F 29% 29.78 in 10.0 mi WNW 10.4 mph - N/A   Clear
2:54 PM 61.0 °F 33.1 °F 35% 29.77 in 10.0 mi Calm Calm - N/A   Clear
3:54 PM 59.0 °F 39.0 °F 48% 29.78 in 10.0 mi South 4.6 mph - N/A   Overcast
4:54 PM 59.0 °F 37.0 °F 44% 29.77 in 10.0 mi Calm Calm - N/A   Partly Cloudy
5:54 PM 55.0 °F 34.0 °F 45% 29.79 in 10.0 mi SSE 3.5 mph - N/A   Clear
6:54 PM 55.0 °F 34.0 °F 45% 29.79 in 10.0 mi SE 3.5 mph - N/A   Clear
7:54 PM 53.1 °F 33.1 °F 47% 29.77 in 10.0 mi ESE 4.6 mph - N/A   Clear
8:54 PM 51.1 °F 32.0 °F 48% 29.77 in 10.0 mi SE 4.6 mph - N/A   Clear
9:54 PM 48.9 °F 33.1 °F 54% 29.78 in 10.0 mi Calm Calm - N/A   Clear
10:54 PM 48.0 °F 36.0 °F 63% 29.78 in 10.0 mi Calm Calm - N/A   Clear
11:54 PM 46.0 °F 36.0 °F 68% 29.77 in 10.0 mi Calm Calm - N/A   Clear